Vertical_Velocity
-1 4 10 -2 3 2 2 -0 -2 2 -1 -1 -2 0 0 1 1 0 -0 -0 -0 -1
-7 -4 -10 -4 7 -1 -0 -2 -2 -6 -0 -7 -0 -1 1 1 1 1 -2 -1 -0 -1
4 5 5 -1 11 2 -2 35 12 4 7 12 2 -0 0 8 -4 -0 0 -0 -1 0
4 -4 1 4 -1 6 -2 -2 -6 -1 1 22 8 12 2 0 3 2 1 -0 0 -0
-3 -1 -1 -7 7 0 1 -2 5 1 -7 0 -4 18 5 2 6 7 3 -0 2 1
7 -1 2 -0 -0 -1 3 0 -4 -0 -0 -1 -4 3 0 6 5 3 1 1 3 2
8 -3 3 2 4 3 6 -3 11 4 0 6 6 5 4 13 3 -0 -5 2 2 -0
11 3 6 11 3 -1 3 -2 -1 -1 6 10 6 28 9 3 9 5 1 -6 -4 -1
2 3 -1 7 4 -0 2 -1 -4 0 -3 5 -6 5 2 2 -3 -5 -6 2 1 -3
2 1 1 1 1 6 -1 -3 3 -1 -4 -9 7 -3 -4 -11 -5 -2 -4 -0 3 -2
0 0 2 0 -2 4 -2 1 1 -2 -0 2 2 -7 -7 -11 3 1 -0 -2 -2 3
3 -0 1 -0 -2 3 1 -1 0 -3 1 -1 3 -2 -5 -4 1 -1 -0 -1 -3 2
-2 2 1 0 1 -2 1 -0 -3 1 2 -3 8 -5 -2 -2 3 0 -3 -1 1 -2
2 -3 0 1 -1 -2 -4 -2 -4 1 0 -3 8 -4 -1 -2 0 -2 -5 -2 -2 -4
Height
5776 5778 5780 5785 5790 5796 5797 5797 5797 5798 5801 5803 5804 5804 5804 5805 5804 5803 5803 5802 5801 5799
5767 5771 5773 5776 5781 5785 5786 5787 5788 5790 5791 5793 5794 5795 5795 5795 5796 5796 5795 5795 5794 5792
5759 5763 5767 5769 5770 5774 5776 5775 5778 5781 5781 5781 5783 5783 5785 5784 5785 5787 5786 5786 5786 5785
5752 5757 5761 5763 5763 5762 5766 5768 5771 5774 5772 5770 5770 5771 5772 5774 5774 5775 5777 5777 5778 5777
5744 5749 5752 5754 5756 5756 5759 5760 5763 5764 5764 5762 5763 5761 5760 5763 5764 5763 5767 5769 5770 5769
5736 5739 5742 5744 5746 5748 5751 5751 5752 5753 5753 5752 5752 5752 5753 5753 5753 5753 5755 5760 5761 5760
5725 5728 5731 5730 5734 5737 5740 5742 5741 5741 5742 5740 5735 5737 5738 5741 5741 5742 5746 5750 5752 5751
5714 5717 5719 5721 5724 5726 5729 5730 5731 5730 5733 5731 5727 5728 5729 5731 5732 5735 5740 5742 5742 5741
5703 5707 5710 5712 5715 5717 5719 5721 5722 5723 5725 5723 5722 5724 5723 5724 5726 5729 5732 5733 5733 5732
5693 5697 5700 5702 5703 5707 5710 5713 5715 5715 5714 5718 5717 5717 5718 5719 5720 5721 5723 5723 5724 5723
5682 5686 5689 5693 5695 5696 5698 5702 5704 5705 5706 5705 5707 5706 5708 5712 5715 5713 5713 5714 5713 5713
5672 5675 5678 5681 5684 5685 5687 5689 5691 5694 5696 5697 5698 5696 5699 5703 5704 5702 5703 5705 5703 5701
5660 5663 5666 5669 5672 5675 5676 5678 5681 5682 5684 5686 5688 5688 5691 5692 5693 5693 5694 5694 5693 5693
5647 5651 5654 5657 5660 5663 5665 5668 5670 5673 5674 5675 5678 5679 5681 5681 5682 5684 5684 5684 5683 5682